{"data":{"norad_id":67062,"intl_designator":"2025-295D","name":"HULIANWANG DIGUI-122","alt_names":[],"object_type":"PAYLOAD","status":"ACTIVE","operator":null,"country":"PRC","launch_date":"2025-12-11","launch_site_code":"WSC","launch_vehicle":null,"mission":null,"orbit_class":"UNKNOWN","rcs_meters":null,"size_class":null,"mass_kg":null,"dimensions":null,"purposes":[],"wikipedia_slug":null,"has_3d_model":false,"image_url":null,"decayed_at":null,"tle_current":{"epoch":"2026-09-19T18:46:39.147456Z","epoch_age_seconds":170665,"freshness":"FRESH","line1":"1 67062U 25295D   26262.78239754 -.00000108  00000+0  34011-4 0  9999","line2":"2 67062  50.0044  46.2886 0000754  78.7501 281.3455 13.29325760 38089","mean_motion":13.2932576,"eccentricity":7.54e-5,"inclination_deg":50.0044,"raan_deg":46.2886,"arg_perigee_deg":78.7501,"mean_anomaly_deg":281.3455,"bstar":3.4011e-5,"rev_number":3808,"period_min":108.32559206556,"perigee_km":1148.7399085566,"apogee_km":1149.8750471838,"semimajor_km":7527.4444778702,"source":"CELESTRAK","updated_at":"2026-09-21T09:00:16.409086Z"}}}